星链-5556 (STARLINK-5556 )

导读

STARLINK-5556是美国太空探索技术公司(SpaceX)于2023年1月26日发射的星链(Starlink)卫星,隶属于SpaceX打造的低轨巨型卫星星座。星链星座旨在为全球提供高速宽带互联网接入服务,尤其能为网络基础设施匮乏的区域实现网络覆盖,该卫星运行在近地轨道,是SpaceX全球卫星互联网组网的组成单元。

基本信息
目录编号:
55385
目录名称:
STARLINK-5556
国际标识:
2023-013BG
轨道中心:
EARTH
卫星名称:
星链-5556
卫星全名:
星链-5556 (STARLINK-5556 )
卫星状态:
在轨 (已飞行1236 天)
发射日期:
2023-01-26 UTC
国别 :
美国 (US)
星等 :
--
轨道信息
数据来源 国际轨道数据 AOE轨道数据
星历时间 2026-06-14T22:38:15+0800
11小时前
查看轨道信息
2026-06-13T00:00:00+0800
2天前
查看轨道信息
半长轴 6861.182km 6861.193km
偏心率 0.0000777 0.000127
轨道倾角 43.002° 43.001°
近地点辐角 285.599° 280.098°
升交点赤经 130.939° 141.913°
平近点角 74.478° 181.091°
近地点 482.511km 482.184km
远地点 483.579km 483.928km
周期 94.267分钟 94.267分钟
每日圈数 15.275814 15.275778
详细信息
固有亮度:
5
最大亮度:
2.5
卫星平台:
Starlink v1.5
覆盖范围:
全球
运营商:
太空探索技术公司
运营商所在国:
美国
制造商(研发单位):
太空探索技术公司
制造商所在国:
美国
使用方式:
暂无
卫星简介
星链(Starlink)计划是由太空探索技术公司(SpaceX)提出的一个巨型低轨卫星互联网星座项目,计划在2019年至2024年间在太空搭建由约1.2万颗卫星组成的“星链”网络,其中1584颗将部署在地球上空550千米处的近地轨道,并从2020年开始工作。该卫星仍在工作。
2D轨道图
3D轨道图
轨道高度分析图
轨道倾角分析图
轨道综合分析图
查看轨道综合分析图